Weather History for KVTN - May, 2014

Change the Weather History Date:

Wednesday, May 14, 2014

  Actual Average Record
Temperature  
Mean Temperature 46 °F 57 °F  
Max Temperature 61 °F 70 °F 96 °F (2001)
Min Temperature 31 °F 44 °F 24 °F (1907)
Degree Days  
Heating Degree Days 19 9  
Month to date heating degree days 203 152  
Since 1 July heating degree days 7176 6835  
Cooling Degree Days 0 1  
Month to date cooling degree days 0 11  
Year to date cooling degree days 0 15  
Moisture  
Dew Point 29 °F    
Average Humidity 57    
Maximum Humidity 82    
Minimum Humidity 32    
Precipitation  
Precipitation 0.00 in 0.10 in 1.26 in (1908)
Month to date precipitation 1.65 1.33  
Year to date precipitation 5.85 5.36  
Snow  
Snow 0.00 in 0.00 in 0.10 in (1907)
Month to date snowfall 1.0 0.1  
Since 1 July snowfall 35.8 33.3  
Snow Depth 0.00 in    
Sea Level Pressure  
Sea Level Pressure 30.30 in    
Wind  
Wind Speed 11 mph (NW)    
Max Wind Speed 22 mph    
Max Gust Speed 33 mph    
Visibility 10 miles    
Events      
T = Trace of Precipitation, MM = Missing Value Source: NWS Daily Summary

Daily Weather History Graph

Daily Weather History Graph

Search for Another Location

Airport or City:

Trip Planner

Search our weather history database for the weather conditions in past years. The results will help you decide how hot, cold, wet, or windy it might be!

Date:

Astronomy

May. 14, 2014 Rise Set
Actual Time 6:20 AM CDT 8:57 PM CDT
Civil Twilight 5:47 AM CDT 9:29 PM CDT
Nautical Twilight 5:07 AM CDT 10:10 PM CDT
Astronomical Twilight 4:21 AM CDT 10:57 PM CDT
Moon 9:04 PM CDT (5/14) 6:21 AM CDT (5/14)
Length of Visible Light 15h 41m
Length of Day
14h 36m
Full, 100% of the Moon is Illuminated
May 14
Full
May 14
Full
May 21
Last Quarter
May 28
New
Jun 5
First Quarter

Hourly Weather History & Observations

Time (CDT) Temp. Windchill Dew Point Humidity Pressure Visibility Wind Dir Wind Speed Gust Speed Precip Events Conditions
12:52 AM 36.0 °F 30.3 °F 28.9 °F 76% 30.35 in 10.0 mi WSW 6.9 mph - N/A   Clear
1:52 AM 34.0 °F 27.2 °F 28.9 °F 82% 30.35 in 10.0 mi West 8.1 mph - N/A   Clear
2:52 AM 34.0 °F 29.8 °F 28.9 °F 82% 30.34 in 10.0 mi SW 4.6 mph - N/A   Clear
3:52 AM 34.0 °F 28.8 °F 28.0 °F 79% 30.32 in 10.0 mi WSW 5.8 mph - N/A   Clear
4:52 AM 34.0 °F 28.0 °F 28.0 °F 79% 30.32 in 10.0 mi West 6.9 mph - N/A   Scattered Clouds
5:52 AM 35.1 °F 28.6 °F 28.9 °F 78% 30.31 in 10.0 mi WSW 8.1 mph - N/A   Clear
6:52 AM 35.1 °F 31.0 °F 28.9 °F 78% 30.32 in 10.0 mi WSW 4.6 mph - N/A   Partly Cloudy
7:52 AM 42.1 °F 36.1 °F 33.1 °F 70% 30.30 in 10.0 mi West 10.4 mph - N/A   Clear
8:52 AM 48.9 °F - 34.0 °F 56% 30.29 in 10.0 mi WNW 12.7 mph - N/A   Clear
9:52 AM 55.4 °F - 33.8 °F 44% 30.26 in 10.0 mi NW 18.4 mph 24.2 mph N/A   Clear
10:52 AM 59.0 °F - 33.1 °F 38% 30.28 in 10.0 mi NNW 20.7 mph 28.8 mph N/A   Clear
11:52 AM 60.1 °F - 35.1 °F 39% 30.28 in 10.0 mi NNW 21.9 mph 27.6 mph N/A   Clear
12:52 PM 60.1 °F - 35.1 °F 39% 30.28 in 10.0 mi NW 19.6 mph 28.8 mph N/A   Clear
1:52 PM 59.0 °F - 30.0 °F 33% 30.28 in 10.0 mi North 21.9 mph 28.8 mph N/A   Clear
2:52 PM 59.0 °F - 30.0 °F 33% 30.28 in 10.0 mi North 19.6 mph 27.6 mph N/A   Clear
3:52 PM 57.2 °F - 28.4 °F 33% 30.25 in 10.0 mi North 13.8 mph 25.3 mph N/A   Partly Cloudy
4:52 PM 55.9 °F - 28.9 °F 36% 30.28 in 10.0 mi North 13.8 mph - N/A   Scattered Clouds
5:52 PM 55.9 °F - 27.0 °F 33% 30.28 in 10.0 mi NNE 16.1 mph 23.0 mph N/A   Partly Cloudy
6:52 PM 55.0 °F - 26.1 °F 33% 30.28 in 10.0 mi North 13.8 mph - N/A   Clear
7:52 PM 52.0 °F - 25.0 °F 35% 30.28 in 10.0 mi NNE 12.7 mph - N/A   Clear
8:52 PM 48.0 °F - 25.0 °F 41% 30.29 in 10.0 mi NNE 6.9 mph - N/A   Clear
9:52 PM 44.6 °F 42.2 °F 24.8 °F 46% 30.28 in 10.0 mi NE 4.6 mph - N/A   Clear
10:52 PM 42.1 °F - 25.0 °F 51% 30.32 in 10.0 mi Calm Calm - N/A   Clear
11:52 PM 34.0 °F - 28.0 °F 79% 30.32 in 10.0 mi Calm Calm - N/A   Clear